Back to catalog

H-2A R/B

AlivePO
NORAD 39771·ROCKET BODY·🇯🇵 Japan

Launched May 24, 2014 from Tanegashima Space Center

Loading…

Next Passes (next 24 hours)

TLE

FreshSource: Space-Track

Epoch: Sep 14, 2026, 10:28 UTC

1 39771U 14029F   26257.43655981  .00003935  00000-0  21276-3 0  9997
2 39771  98.2036 260.6493 0008096 194.7830 165.3164 15.15332568672383

Track H-2A R/B in real time with AllMySat

Download on the App Store